www.pogodaiklimat.ru

Погода и климат >> Архив погоды >> Казахстан >> Кишкенеколь


АРХИВ ПОГОДЫ в Кишкенеколе

Время (UTC), дата Ветер
(напр.,м/с)
 
Видим.   Явления Облачность Т
(С)
Тd
(С)
f
(%)
Тe
(С)
Тes
(С)
Комфортность P
(гПа)
Po
(гПа)
Тmin
(С)
Tmax
(С)
R
(мм)
R24
(мм)
S
(см)
00 14.06 СЗ 3 20 км ясно +5.9 +2.5 79 +3 +3 1010.1 993.6
03 14.06 СЗ 4 20 км 4/4 1000 м
[Cu med, cong]
+11.3 +6.0 70 +9 +12 1010.5 994.3
06 14.06 ЮЗ 6 20 км 8/8 1000 м
[Cu med, cong]
+14.2 +3.1 47 +12 +14 1010.0 994.0 +5.9
09 14.06 З 5 20 км 10/10 1000 м
[Cu med, cong]
+14.0 +1.3 42 +13 +13 1009.7 993.7
12 14.06 З 4 20 км 10/10 1000 м
[Cu med, cong]
+13.5 +3.0 49 +12 +12 1010.1 994.1
15 14.06 З 3 20 км 9/0
[Ac As]
+12.8 +2.9 51 +12 +12 1009.9 993.8 +14.6
18 14.06 СЗ 1 н/о 8/0
[Ac As]
+9.4 +3.9 68 +9 +9 1010.8 994.5 +14.6
21 14.06 ЮЗ 2 н/о 8/0
[Ac As]
+6.8 +2.5 74 +5 +5 1011.1 994.7
00 15.06 З 1 20 км 8/0
[Ac As]
+5.3 +3.4 88 +4 +4 1010.9 994.4
03 15.06 В 1 20 км 9/0
[Ac As]
+12.0 +3.7 57 +12 +15 1010.9 994.8
06 15.06 С 2 20 км 9/9 1000 м
[Sc]
+14.0 +2.8 47 +14 +15 1010.3 994.3 +5.3
09 15.06 С 2 20 км 10/10 1000 м
[Sc]
+14.6 +1.3 40 +15 +15 1009.4 993.4
12 15.06 СВ 3 20 км 9/9 1000 м
[Sc]
+15.6 +2.8 42 +15 +16 1008.8 992.9
15 15.06 С 1 20 км 9/9 1000 м
[Sc]
+14.0 +2.8 47 +15 +15 1009.0 993.0 +16.0
18 15.06 С 1 н/о 10/0
[Ac und]
+11.8 +3.2 56 +12 +12 1008.9 992.8 +16.0
21 15.06 С 2 н/о 8/0
[Ac As]
+9.6 +5.7 77 +8 +8 1008.3 992.1
00 16.06 ЮЗ 1 20 км 6/0
[Ac As]
+5.8 +3.9 88 +5 +5 1008.8 992.4
03 16.06 З 3 20 км 10/0
[Ac und]
+11.6 +7.9 78 +10 +12 1009.3 993.2
06 16.06 З 5 20 км 4/4 1000 м
[Cu med, cong]
+17.2 +8.0 55 +17 +22 1008.2 992.4 +5.8
09 16.06 З 5 20 км {дождь} 8/8 1000 м
[Sc]
+16.9 +9.7 63 +16 +18 1008.0 992.2
12 16.06 З 5 20 км {дождь} 4/4 1000 м
[Sc]
+18.0 +5.8 45 +18 +19 1008.6 992.8
15 16.06 З 3 20 км 8/8 1000 м
[Sc]
+16.1 +7.1 55 +16 +16 1009.0 993.1 +18.8
18 16.06 Ю 2 н/о 6/6 1000 м
[Sc]
+10.8 +5.1 68 +10 +10 1009.1 992.9 +18.8 0.0
21 16.06 Ю 2 н/о 4/0
[Ac As]
+8.2 +3.8 74 +6 +6 1008.4 992.1
00 17.06 ЮВ 2 20 км 6/0
[Ac As]
+8.0 +4.4 78 +6 +6 1007.9 991.6
03 17.06 Ю 4 20 км 8/0
[Ac As]
+15.0 +8.8 66 +14 +16 1006.8 990.9
06 17.06 Ю 3 20 км 9/0 1000 м
[Ac As]
+16.8 +7.5 54 +17 +21 1006.2 990.4 +8.0
09 17.06 ЮЗ 5 20 км в посл. час гроза {ливн. осадки} 8/8 1000 м
[Cu med, cong]
+20.6 +8.5 46 +22 +23 комфорт 1004.9 989.4
12 17.06 ЮВ 2 20 км {гроза, дождь} 9/9 1000 м
[Sc]
+16.2 +10.8 70 +16 +17 1005.0 989.2
15 17.06 З 2 10 км слаб. дождь 10/10 600 м
[Frnb Ns]
+13.8 +10.6 81 +13 +13 1005.3 989.4 +21.0
18 17.06 З 3 н/о {дождь} 10/10 600 м
[Frnb Ns]
+12.5 +9.2 80 +11 +11 1003.0 987.0 +21.0 1
21 17.06 СЗ 3 н/о {дождь} 10/10 600 м
[Frnb Ns]
+12.0 +9.2 83 +10 +10 1001.7 985.7
00 18.06 СЗ 5 20 км {дождь} 10/10 600 м
[Frnb Ns]
+10.2 +8.4 89 +7 +7 1001.9 985.8
03 18.06 СЗ 6 20 км 8/8 1000 м
[Sc]
+11.0 +7.7 80 +8 +9 1003.2 987.2
06 18.06 ЮЗ 6 20 км 8/8 1000 м
[Cu med, cong]
+14.8 +4.6 50 +13 +14 1004.1 988.2 +10.2 3
09 18.06 СЗ 8 20 км 9/9 1000 м
[Cu med, cong]
+18.0 +5.8 45 +17 +17 1004.9 989.2
12 18.06 З 6 20 км 6/6 1000 м
[Cu med, cong]
+18.4 +4.7 40 +18 +19 1005.3 989.6
15 18.06 ЮЗ 3 20 км 6/0
[Ac As]
+15.0 +4.8 50 +14 +15 1006.2 990.3 +18.7
18 18.06 ЮЗ 1 н/о 8/0
[Ac As]
+10.2 +6.6 78 +10 +10 1007.5 991.3 +18.7
21 18.06 З 3 н/о 6/0
[Ac As]
+9.0 +6.7 85 +7 +7 1007.8 991.6
00 19.06 ЮЗ 1 20 км 4/0
[Ac As]
+6.7 +4.9 88 +6 +6 1009.2 992.8
03 19.06 З 3 20 км 3/0
[Ac As]
+13.4 +8.2 71 +12 +17 1009.6 993.6
06 19.06 З 4 20 км 8/8 1000 м
[Cu med, cong]
+18.2 +8.6 53 +18 +20 1010.6 994.8 +6.7
09 19.06 З 3 20 км 9/9 1000 м
[Cu med, cong]
+17.5 +6.9 50 +18 +19 1011.9 996.1
12 19.06 СЗ 5 20 км 8/8 1000 м
[Cu med, cong]
+19.6 +6.2 42 +20 +21 1012.2 996.5
15 19.06 штиль 0 20 км ясно +18.4 +8.3 52 +19 +19 1013.5 997.7 +20.0
18 19.06 Ю 1 н/о ясно +11.5 +7.4 76 +11 +11 1015.1 998.9 +20.0
21 19.06 Ю 1 н/о ясно +8.8 +6.0 83 +8 +8 1015.7 999.3
00 20.06 Ю 1 20 км ясно +7.4 +5.6 88 +6 +7 1017.0 1000.5
03 20.06 ЮЗ 3 20 км ясно +16.2 +7.9 58 +16 +22 1016.9 1000.9
06 20.06 СЗ 4 20 км ясно +21.8 +7.0 38 +23 +33 комфорт 1017.5 1001.8 +7.4
12 20.06 Ю 3 20 км 3/3 1000 м
[Cu med, cong]
+24.2 +5.8 31 +24 +27 комфорт 1015.7 1000.2
18 20.06 Ю 1 н/о ясно +14.8 +7.5 62 +15 +15 1016.1 1000.1 +25.0

 

Местоположение метеостанции Кишкенеколь (Северо-Казахстанская область, Казахстан): широта 53.63 долгота 72.37 высота над уровнем моря 138 м.

В архиве по умолчанию представлена погода в Кишкенеколе за последнюю неделю. Архивные данные за месяц целиком и за предыдущие месяцы, начиная с января 2011 года, Вы можете получить, выбрав интересующий диапазон дат из раскрывающегося списка и нажав кнопку "Ввод!".


*Определитесь, кто Вы:
робот инопланетянин человек

Внимание! Время в таблицах - всемирное. Для получения местного времени необходимо прибавить поправку, которая равна 5 ч.

Смотрите также архив погоды в соседних городах и на ближайших метеорологических станциях:

Погода в Явленке (Северо-Казахстанская область, Казахстан) (48 км)
Погода в Кызылту (Северо-Казахстанская область, Казахстан) (58 км)
Погода в Одесском (Омская область, Россия) (75 км)
Погода в Полтавке (Омская область, Россия) (92 км)
Погода в Русской Поляне (Омская область, Россия) (101 км)
Погода в Павлоградке (Омская область, Россия) (101 км)
Погода в Щербакуле (Омская область, Россия) (111 км)
Погода в Чкалово (Северо-Казахстанская область, Казахстан) (128 км)
Погода в Возвышенке (Северо-Казахстанская область, Казахстан) (130 км)
Погода в Голубовке (Павлодарская область, Казахстан) (133 км)

Пояснения к столбцам:

Ветер - указаны скорость ветра в м/с - средняя за 10 мин, порывы в срок и между сроками (в фигурных скобках) и направление, откуда дует ветер: С - северный, СВ - северо-восточный, В - восточный, ЮВ - юго-восточный, Ю - южный, ЮЗ - юго-западный, З - западный, СЗ - северо-западный.
Видимость - горизонтальная дальность видимости в метрах или километрах. При видимости от 1 до 10 км при отсутствии осадков обычно наблюдается дымка, при ухудшении видимости до 1 км и менее - туман. В сухую погоду видимость может ухудшаться дымом, пылью или мглою.
Явления - указаны атмосферные явления, наблюдавшиеся в срок или в последний час перед сроком; фигурными скобками обозначены явления, наблюдавшиеся между сроками (за 1-3 часа до срока); квадратными скобками обозначены град или гололедные отложения с указанием их диаметра в мм.
Облачность - указаны через наклонную черту общая и нижняя облачность в баллах и высота нижней границы облаков в метрах; квадратными скобками обозначены формы облаков: Ci - перистые, Cs - перисто-слоистые, Cc - перисто-кучевые, Ac - высококучевые, As - высокослоистые, Sc - слоисто-кучевые, Ns - слоисто-дождевые, Cu - кучевые, Cb - кучево-дождевые. Подробнее классификацию облаков см. в Атласе облаков (PDF).
T - Температура воздуха - температура, измеренная на высоте 2 м над землей.
Td - Температура точки росы - температура, при понижении до которой содержащийся в воздухе водяной пар достигнет насыщения.
f - Относительная влажность воздуха - влажноcть воздуха, измеренная на высоте 2 м над землей.
Te - Эффективная температура - температура, которую ощущает одетый по сезону человек в тени. Характеристика душности погоды. При расчете учитывается влияние влажности воздуха и скорости ветра на теплоощущения человека.
Tes - Эффективная температура на солнце - температура, которую ощущает человек, с поправкой на солнечный нагрев. Характеристика знойности погоды. Зависит от высоты солнца над горизонтом, облачности и скорости ветра. Ночью, в пасмурную погоду, а также при ветре 12 м/с и более поправка равна нулю.
P - Атмосферное давление - приведенное к уровню моря атмосферное давление.
Po - Атмосферное давление - измеренное на уровне метеостанции атмосферное давление.
Tmin - Минимальная температура - минимум температуры воздуха на высоте 2 м над землей.
Tmax - Максимальная температура - максимум температуры воздуха на высоте 2 м над землей.
R - Количество осадков - Количество выпавших осадков за период времени, мм. При наведении курсора мыши на число - период времени, за который выпало указанное количество осадков.
R24 - Количество осадков - Количество выпавших осадков за 24 часа, мм.
S - Снежный покров - Высота снежного покрова, см. При наведении курсора мыши на число - состояние снежного покрова и степень покрытия местности в баллах.